Location: Karcze
(52.0945°N, 22.4786°E)
Time: 12:17:18
(UTC+00:00)

CBERS-1 - Pass Details

Date: 14 July 2020
Orbit: 770 x 777 km, 98.6° (Epoch: 07 August)

Event Time Altitude Azimuth Distance (km) Brightness Sun altitude
Rises 00:50:00 0° 16° (NNE) 3,272 9.0 -10.7°
Reaches altitude 10° 00:52:20 10° 18° (NNE) 2,339 7.9 -10.5°
Maximum altitude 00:57:30 76° 104° (ESE) 806 4.2 -10.1°
Drops below altitude 10° 01:02:38 10° 191° (S) 2,318 5.9 -9.6°
Enters shadow 01:02:41 10° 191° (S) 2,343 5.9 -9.6°
